When you browse on this site, cookies collect data to enhance your experience and personalize the content and advertising you see.
Visit our Privacy Policy to learn more. By continuing to use the site, you agree to this use of cookies and data.
  • In Austria
  • List of Countries
  • For 7 days
  • Water Temperature
  • Weather Map
  • News
  • Weather Widgets
  • user-avatar
    Login

    Hourly Weather Idzhewan

    Today, 31 May, Sunday

    Time Temperature Precipitation Wind Pressure Humidity
    00:00 +15°C° 0.1 mm 0 mps 691 mmHg 85%
    01:00 +15°C° 0 mm 0 mps 692 mmHg 87%
    02:00 +14°C° 0 mm 0 mps 692 mmHg 88%
    03:00 +14°C° 0 mm 0 mps 692 mmHg 90%
    04:00 +14°C° 0 mm 0 mps 692 mmHg 89%
    05:00 +15°C° 0 mm 0 mps 693 mmHg 88%
    06:00 +15°C° 0 mm 0 mps 693 mmHg 87%
    07:00 +19°C° 0 mm 1 mps 693 mmHg 82%
    08:00 +20°C° 0 mm 1 mps 693 mmHg 77%
    09:00 +22°C° 0 mm 1 mps 693 mmHg 72%
    10:00 +21°C° 0 mm 2 mps 693 mmHg 68%
    11:00 +23°C° 0 mm 2 mps 693 mmHg 64%
    12:00 +24°C° 0 mm 2 mps 693 mmHg 61%
    13:00 +25°C° 0.1 mm 2 mps 693 mmHg 60%
    14:00 +25°C° 0.1 mm 2 mps 692 mmHg 60%
    15:00 +25°C° 0.1 mm 2 mps 692 mmHg 59%
    16:00 +25°C° 0.1 mm 2 mps 692 mmHg 64%
    17:00 +24°C° 0.1 mm 1 mps 692 mmHg 68%
    18:00 +24°C° 0.1 mm 1 mps 691 mmHg 72%
    19:00 +22°C° 0 mm 1 mps 692 mmHg 73%
    20:00 +20°C° 0 mm 1 mps 692 mmHg 75%
    21:00 +18°C° 0 mm 1 mps 692 mmHg 76%
    22:00 +18°C° 0 mm 1 mps 692 mmHg 75%
    23:00 +18°C° 0 mm 1 mps 691 mmHg 75%

    Tomorrow, 1 June, Monday

    Time Temperature Precipitation Wind Pressure Humidity
    00:00 +16°C° 0 mm 1 mps 691 mmHg 74%
    01:00 +16°C° 0 mm 1 mps 691 mmHg 77%
    02:00 +15°C° 0 mm 1 mps 691 mmHg 79%
    03:00 +15°C° 0 mm 1 mps 691 mmHg 81%
    04:00 +16°C° 0 mm 1 mps 691 mmHg 81%
    05:00 +18°C° 0 mm 1 mps 691 mmHg 81%
    06:00 +16°C° 0 mm 0 mps 691 mmHg 81%
    07:00 +20°C° 0 mm 1 mps 691 mmHg 78%
    08:00 +21°C° 0 mm 1 mps 691 mmHg 74%
    09:00 +23°C° 0 mm 2 mps 691 mmHg 71%
    10:00 +23°C° 0.1 mm 2 mps 691 mmHg 70%
    11:00 +24°C° 0.1 mm 2 mps 691 mmHg 69%
    12:00 +25°C° 0.1 mm 2 mps 691 mmHg 69%
    13:00 +25°C° 0.2 mm 2 mps 690 mmHg 68%
    14:00 +25°C° 0.2 mm 2 mps 690 mmHg 66%
    15:00 +26°C° 0.2 mm 2 mps 690 mmHg 65%
    16:00 +25°C° 0.2 mm 2 mps 689 mmHg 69%
    17:00 +25°C° 0.2 mm 1 mps 689 mmHg 73%
    18:00 +24°C° 0.2 mm 1 mps 689 mmHg 77%
    19:00 +23°C° 0 mm 1 mps 689 mmHg 77%
    20:00 +20°C° 0 mm 2 mps 689 mmHg 76%
    21:00 +19°C° 0 mm 2 mps 689 mmHg 76%
    22:00 +18°C° 0 mm 2 mps 689 mmHg 72%
    23:00 +18°C° 0 mm 2 mps 689 mmHg 69%

    Day after tomorrow, 2 June, Tuesday

    Time Temperature Precipitation Wind Pressure Humidity
    00:00 +17°C° 0 mm 2 mps 689 mmHg 65%
    01:00 +17°C° 0 mm 2 mps 689 mmHg 65%
    02:00 +17°C° 0 mm 2 mps 689 mmHg 65%
    03:00 +16°C° 0 mm 2 mps 689 mmHg 65%
    04:00 +17°C° 0 mm 2 mps 689 mmHg 66%
    05:00 +18°C° 0 mm 2 mps 689 mmHg 68%
    06:00 +18°C° 0 mm 2 mps 689 mmHg 70%
    07:00 +21°C° 0 mm 2 mps 689 mmHg 64%
    08:00 +24°C° 0 mm 2 mps 689 mmHg 58%
    09:00 +26°C° 0 mm 2 mps 689 mmHg 52%
    10:00 +27°C° 0 mm 2 mps 689 mmHg 50%
    11:00 +28°C° 0 mm 3 mps 689 mmHg 48%
    12:00 +29°C° 0 mm 3 mps 689 mmHg 46%
    13:00 +29°C° 0.1 mm 3 mps 689 mmHg 49%
    14:00 +29°C° 0.1 mm 2 mps 688 mmHg 53%
    15:00 +28°C° 0.1 mm 2 mps 688 mmHg 57%
    16:00 +28°C° 0.1 mm 2 mps 688 mmHg 61%
    17:00 +27°C° 0.1 mm 1 mps 688 mmHg 65%
    18:00 +26°C° 0.1 mm 1 mps 688 mmHg 69%
    19:00 +24°C° 0 mm 1 mps 688 mmHg 69%
    20:00 +23°C° 0 mm 2 mps 688 mmHg 69%
    21:00 +20°C° 0 mm 2 mps 689 mmHg 69%
    22:00 +19°C° 0 mm 2 mps 689 mmHg 65%
    23:00 +18°C° 0 mm 2 mps 689 mmHg 62%

    3 June, Wednesday

    Time Temperature Precipitation Wind Pressure Humidity
    00:00 +18°C° 0 mm 2 mps 689 mmHg 58%
    01:00 +18°C° 0 mm 3 mps 688 mmHg 55%
    02:00 +17°C° 0 mm 3 mps 688 mmHg 53%
    03:00 +17°C° 0 mm 3 mps 688 mmHg 50%
    04:00 +17°C° 0 mm 3 mps 689 mmHg 52%
    05:00 +17°C° 0 mm 3 mps 689 mmHg 54%
    06:00 +18°C° 0 mm 3 mps 689 mmHg 56%
    07:00 +20°C° 0 mm 3 mps 689 mmHg 53%
    08:00 +24°C° 0 mm 2 mps 689 mmHg 50%
    09:00 +26°C° 0 mm 1 mps 689 mmHg 47%
    10:00 +27°C° 0 mm 2 mps 689 mmHg 46%
    11:00 +28°C° 0 mm 2 mps 689 mmHg 46%
    12:00 +28°C° 0 mm 2 mps 690 mmHg 46%
    13:00 +28°C° 0 mm 2 mps 689 mmHg 48%
    14:00 +28°C° 0 mm 1 mps 689 mmHg 49%
    15:00 +27°C° 0 mm 1 mps 689 mmHg 51%
    16:00 +25°C° 0.8 mm 1 mps 688 mmHg 61%
    17:00 +23°C° 0.8 mm 1 mps 688 mmHg 71%
    18:00 +22°C° 0.8 mm 1 mps 688 mmHg 81%
    19:00 +20°C° 0 mm 1 mps 688 mmHg 82%
    20:00 +19°C° 0 mm 1 mps 688 mmHg 82%
    21:00 +18°C° 0 mm 1 mps 688 mmHg 83%
    22:00 +18°C° 0 mm 1 mps 688 mmHg 81%
    23:00 +17°C° 0 mm 2 mps 688 mmHg 79%

    4 June, Thursday

    Time Temperature Precipitation Wind Pressure Humidity
    00:00 +17°C° 0 mm 2 mps 688 mmHg 77%
    01:00 +17°C° 0 mm 2 mps 689 mmHg 78%
    02:00 +16°C° 0 mm 2 mps 689 mmHg 78%
    03:00 +16°C° 0 mm 2 mps 689 mmHg 79%
    04:00 +16°C° 0 mm 2 mps 689 mmHg 77%
    05:00 +17°C° 0 mm 2 mps 689 mmHg 76%
    06:00 +18°C° 0 mm 2 mps 690 mmHg 75%
    07:00 +19°C° 0 mm 2 mps 690 mmHg 67%
    08:00 +21°C° 0 mm 2 mps 690 mmHg 60%
    09:00 +24°C° 0 mm 2 mps 691 mmHg 53%
    10:00 +25°C° 0 mm 2 mps 691 mmHg 52%
    11:00 +26°C° 0 mm 2 mps 691 mmHg 51%
    12:00 +27°C° 0 mm 2 mps 691 mmHg 50%
    13:00 +27°C° 0 mm 2 mps 691 mmHg 52%
    14:00 +27°C° 0 mm 2 mps 691 mmHg 53%
    15:00 +27°C° 0 mm 2 mps 690 mmHg 54%
    16:00 +26°C° 0.1 mm 2 mps 690 mmHg 60%
    17:00 +25°C° 0.1 mm 2 mps 690 mmHg 66%
    18:00 +24°C° 0.1 mm 2 mps 690 mmHg 72%
    19:00 +21°C° 0 mm 2 mps 691 mmHg 74%
    20:00 +21°C° 0 mm 1 mps 691 mmHg 76%
    21:00 +19°C° 0 mm 1 mps 691 mmHg 79%
    22:00 +18°C° 0 mm 2 mps 691 mmHg 79%
    23:00 +17°C° 0 mm 2 mps 691 mmHg 78%

    5 June, Friday

    Time Temperature Precipitation Wind Pressure Humidity
    00:00 +17°C° 0 mm 2 mps 691 mmHg 78%
    01:00 +18°C° 0 mm 1 mps 691 mmHg 80%
    02:00 +16°C° 0 mm 1 mps 691 mmHg 81%
    03:00 +14°C° 0 mm 0 mps 691 mmHg 82%
    04:00 +15°C° 0 mm 0 mps 692 mmHg 82%
    05:00 +15°C° 0 mm 0 mps 692 mmHg 82%
    06:00 +16°C° 0 mm 0 mps 692 mmHg 81%
    07:00 +19°C° 0 mm 1 mps 692 mmHg 80%
    08:00 +20°C° 0 mm 1 mps 692 mmHg 78%
    09:00 +20°C° 0 mm 2 mps 692 mmHg 76%
    10:00 +21°C° 0 mm 2 mps 692 mmHg 76%
    11:00 +21°C° 0 mm 2 mps 692 mmHg 76%
    12:00 +21°C° 0 mm 2 mps 692 mmHg 77%
    13:00 +23°C° 0 mm 2 mps 692 mmHg 74%
    14:00 +24°C° 0 mm 2 mps 692 mmHg 72%
    15:00 +25°C° 0 mm 1 mps 692 mmHg 70%
    16:00 +24°C° 0.1 mm 1 mps 691 mmHg 72%
    17:00 +24°C° 0.1 mm 1 mps 691 mmHg 74%
    18:00 +24°C° 0.1 mm 1 mps 691 mmHg 76%
    19:00 +22°C° 0.3 mm 1 mps 691 mmHg 80%
    20:00 +20°C° 0.3 mm 1 mps 692 mmHg 85%
    21:00 +19°C° 0.3 mm 1 mps 692 mmHg 90%
    22:00 +18°C° 0.4 mm 1 mps 692 mmHg 90%
    23:00 +18°C° 0.4 mm 1 mps 692 mmHg 91%
    Show more